Flag for Australia Weather past 2 weeks in Darwin, Northern Territory, Australia

77 °F


Feels Like: 78 °F
Forecast: 78 / 90 °F
Wind: 7 mph from North

Location: Darwin Airport

Current Time: Oct 11, 2015 at 2:16:45 AM

Latest Report: Oct 11, 2015 at 1:30 AM

Visibility: 10 mi

Pressure: 29.95 "Hg

Humidity: 83%

Dew point: 72 °F

Location of DarwinLocation

Historic Weather in Darwin — Graph


Darwin temperature yesterday

Maximum temperature yesterday: 93 °F (at 12:00 PM)
Minimum temperature yesterday: 75 °F (at 6:00 AM)
Average temperature yesterday: 84 °F

Past Weeks' High & Low Weather Summary

High95 °F (Oct 1, 1:22 PM)94% (Sep 26, 4:00 AM)30.09 "Hg (Sep 26, 4:00 AM)
Low72 °F (Sep 28, 2:00 AM)18% (Oct 1, 1:22 PM)29.83 "Hg (Sep 26, 3:30 PM)
Average82 °F64%29.96 "Hg
* Reported Sep 26 12:30 AM — Oct 11 1:00 AM, Darwin, Weather by CustomWeather, © 2015

Note: Actual official high and low records may vary slightly from our data, if they occured in-between our weather recording intervals... More about our weather records


Darwin weather history for previous 24 hours

Time TempWeatherWind HumidityBarometerVisibility
1:00 AM
Sun, Oct 11
79 °FClear.6 mph79%29.98 "Hg10 mi
12:30 AM81 °FPassing clouds.6 mph74%29.98 "HgN/A
11:30 PM
Sat, Oct 10
81 °FPassing clouds.10 mph79%30.01 "HgN/A
11:00 PM81 °FPassing clouds.13 mph74%30.01 "HgN/A
10:30 PM82 °FPassing clouds.15 mph70%30.01 "HgN/A
10:00 PM82 °FPassing clouds.20 mph74%29.98 "HgN/A
9:30 PM81 °FClear.10 mph66%29.98 "Hg10 mi
9:00 PM81 °FClear.7 mph66%29.98 "Hg10 mi
8:30 PM82 °FClear.6 mph62%29.98 "Hg10 mi
8:00 PM82 °FClear.8 mph51%29.95 "Hg10 mi
7:30 PM82 °FClear.9 mph51%29.95 "Hg10 mi
7:00 PM84 °FSunny.8 mph40%29.92 "Hg10 mi
6:30 PM86 °FSunny.10 mph35%29.92 "Hg10 mi
6:00 PM86 °FSunny.15 mph40%29.92 "Hg10 mi
5:30 PM88 °FSunny.17 mph35%29.89 "Hg10 mi
5:00 PM88 °FSunny.16 mph38%29.89 "Hg10 mi
4:30 PM90 °FSunny.17 mph36%29.89 "Hg10 mi
4:00 PM90 °FSunny.18 mph38%29.89 "Hg10 mi
3:30 PM90 °FSunny.17 mph41%29.89 "Hg10 mi
3:00 PM90 °FSunny.18 mph43%29.89 "Hg10 mi
2:30 PM88 °FSunny.17 mph46%29.92 "Hg10 mi
2:00 PM90 °FSunny.17 mph43%29.92 "Hg10 mi
1:30 PM88 °FSunny.18 mph46%29.95 "Hg10 mi
1:00 PM93 °FSunny.12 mph28%29.95 "Hg10 mi
12:30 PM91 °FSunny.13 mph28%29.98 "Hg10 mi
12:00 PM93 °FSunny.15 mph26%29.98 "Hg10 mi
11:30 AM91 °FPassing clouds.15 mph28%30.01 "HgN/A
11:00 AM90 °FPassing clouds.15 mph31%30.01 "HgN/A
10:30 AM90 °FPassing clouds.14 mph36%30.04 "HgN/A
10:00 AM86 °FPassing clouds.14 mph43%30.04 "HgN/A
9:30 AM86 °FPassing clouds.13 mph52%30.04 "HgN/A
9:00 AM82 °FPassing clouds.13 mph62%30.04 "HgN/A
8:30 AM82 °FPassing clouds.12 mph66%30.04 "HgN/A
8:00 AM81 °FSunny.10 mph74%30.01 "Hg10 mi
7:30 AM79 °FSunny.8 mph79%30.01 "Hg10 mi
6:30 AM75 °FClear.7 mph89%29.98 "Hg10 mi
6:00 AM75 °FClear.7 mph89%29.98 "Hg10 mi
5:30 AM77 °FClear.7 mph83%29.98 "Hg10 mi
5:00 AM77 °FPassing clouds.6 mph83%29.95 "HgN/A
4:30 AM77 °FClear.6 mph83%29.95 "Hg10 mi
3:30 AM77 °FPassing clouds.5 mph79%29.95 "HgN/A
3:00 AM79 °FClear.6 mph79%29.95 "Hg10 mi
2:30 AM79 °FPassing clouds.7 mph74%29.98 "HgN/A
2:00 AM79 °FPassing clouds.7 mph74%29.98 "HgN/A
Weather by CustomWeather, © 2015

See weather overviewHow to use our weather pages